Truth Or Consequences, NM

10:48 PM MDT on April 30, 2017 (GMT -0600)
Truth Or Consequences Municipal

Weather History for KTCS - October, 2011

Change the Weather History Date:

Wednesday, October 26, 2011

  Actual Average Record
Temperature  
Mean Temperature 63 °F -  
Max Temperature 78 °F 71 °F 83 °F (2014)
Min Temperature 47 °F 44 °F 30 °F (1997)
Degree Days  
Heating Degree Days 2    
Month to date heating degree days 56  
Since 1 July heating degree days 56  
Cooling Degree Days 0    
Month to date cooling degree days 41  
Year to date cooling degree days 2138  
Growing Degree Days 12 (Base 50)    
Moisture  
Dew Point 37 °F    
Average Humidity 41    
Maximum Humidity 55    
Minimum Humidity 26    
Precipitation  
Precipitation T in - 0.33 in (1996)
Month to date precipitation 0.62  
Year to date precipitation 5.04  
Sea Level Pressure  
Sea Level Pressure 29.75 in    
Wind  
Wind Speed 11 mph (SW)    
Max Wind Speed 35 mph    
Max Gust Speed 41 mph    
Visibility 10 miles    
Events Rain    
T = Trace of Precipitation, MM = Missing Value Source: NWS Daily Summary

Daily Weather History Graph

Daily Weather History Graph

Search for Another Location

Airport or City:

Trip Planner

Search our weather history database for the weather conditions in past years. The results will help you decide how hot, cold, wet, or windy it might be!

Date:

Astronomy

Oct. 26, 2011 Rise Set
Actual Time 7:22 AM MDT 6:23 PM MDT
Civil Twilight 6:56 AM MDT 6:48 PM MDT
Nautical Twilight 6:27 AM MDT 7:17 PM MDT
Astronomical Twilight 5:58 AM MDT 7:46 PM MDT
Moon 7:10 AM MDT (10/26) 6:12 PM MDT (10/26)
Length of Visible Light 11h 51m
Length of Day
11h 01m
Waning Crescent, 0% of the Moon is Illuminated
Oct 26
Waning Crescent
Oct 26
New
Nov 2
First Quarter
Nov 10
Full
Nov 18
Last Quarter

Hourly Weather History & Observations

Time (MDT) Temp. Dew Point Humidity Pressure Visibility Wind Dir Wind Speed Gust Speed Precip Events Conditions
12:53 AM 61.0 °F 34.0 °F 36% 29.83 in 10.0 mi NW 8.1 mph - N/A   Clear
1:53 AM 57.0 °F 35.1 °F 44% 29.82 in 10.0 mi NW 4.6 mph - N/A   Clear
2:53 AM 54.0 °F 34.0 °F 47% 29.81 in 10.0 mi WSW 6.9 mph - N/A   Clear
3:53 AM 54.0 °F 34.0 °F 47% 29.80 in 10.0 mi West 8.1 mph - N/A   Clear
4:53 AM 53.1 °F 33.1 °F 47% 29.81 in 10.0 mi Calm Calm - N/A   Clear
5:53 AM 51.1 °F 33.1 °F 50% 29.81 in 10.0 mi Calm Calm - N/A   Clear
6:53 AM 48.2 °F 32.0 °F 54% 30.00 in 10.0 mi Calm Calm - N/A   Clear
7:53 AM 54.0 °F 34.0 °F 47% 29.83 in 10.0 mi SSE 4.6 mph - N/A   Clear
8:53 AM 57.9 °F 35.1 °F 42% 29.83 in 10.0 mi SSE 4.6 mph - N/A   Clear
9:53 AM 64.0 °F 35.1 °F 34% 29.81 in 10.0 mi South 15.0 mph 23.0 mph N/A   Partly Cloudy
10:53 AM 68.0 °F 37.9 °F 33% 29.78 in 10.0 mi South 15.0 mph - N/A   Clear
11:53 AM 73.0 °F 41.0 °F 31% 29.73 in 10.0 mi South 18.4 mph 29.9 mph N/A   Clear
12:53 PM 75.0 °F 39.0 °F 27% 29.69 in 10.0 mi SSW 20.7 mph 29.9 mph N/A   Scattered Clouds
1:53 PM 72.0 °F 44.1 °F 37% 29.67 in 10.0 mi SW 12.7 mph - 0.00 in   Mostly Cloudy
2:53 PM 77.0 °F 39.0 °F 25% 29.62 in 10.0 mi SW 18.4 mph 26.5 mph N/A   Clear
3:53 PM 72.0 °F 42.1 °F 34% 29.63 in 10.0 mi South 18.4 mph - N/A   Partly Cloudy
4:53 PM 73.0 °F 41.0 °F 31% 29.61 in 10.0 mi SSW 17.3 mph 24.2 mph N/A   Scattered Clouds
5:53 PM 69.1 °F 43.0 °F 39% 29.62 in 10.0 mi South 15.0 mph - N/A   Clear
6:53 PM 69.1 °F 41.0 °F 36% 29.65 in 10.0 mi West 6.9 mph - N/A   Mostly Cloudy
7:53 PM 66.0 °F 37.9 °F 36% 29.65 in 10.0 mi West 10.4 mph - N/A   Scattered Clouds
8:53 PM 66.0 °F 36.0 °F 33% 29.65 in 10.0 mi WSW 8.1 mph - N/A   Partly Cloudy
9:53 PM 61.0 °F 36.0 °F 39% 29.68 in 10.0 mi West 5.8 mph - N/A   Scattered Clouds
10:53 PM 59.0 °F 37.0 °F 44% 29.69 in 10.0 mi NW 9.2 mph - N/A   Mostly Cloudy
11:34 PM 55.4 °F 41.0 °F 58% 29.90 in 10.0 mi North 18.4 mph 23.0 mph 0.00 in Rain Light Rain
11:53 PM 55.0 °F 39.9 °F 57% 29.73 in 10.0 mi NNE 17.3 mph 27.6 mph 0.00 in   Overcast